AAL800 MMUN-MMSM

Flight info

Callsign AAL800
Flight time 1h 51m
Altitude 40000
Route UDGUV2A UDGUV UT78 MEDOS DCT UBVOV UT20 TAJIN DCT VITOS VITOS1S
Aircraft B772/H-SDE2E3FGHIJ5LORVWXY/LB1D1

Departure

Time 2026-04-23 00:24
Airport Cancún International Airport (MMUN)

Arrival

Time 2026-04-23 02:15
Airport Felipe Ángeles International Airport (MMSM)
Time Latitude Longitude Altitude Speed Heading
2026-04-23 00:02 21.03630 -86.86752 45 ft 0 kts 304°
2026-04-23 00:10 21.03622 -86.86739 45 ft 2 kts 304°
2026-04-23 00:10 21.03615 -86.86728 46 ft 2 kts 303°
2026-04-23 00:10 21.03607 -86.86710 46 ft 2 kts 281°
2026-04-23 00:11 21.03606 -86.86691 46 ft 2 kts 264°
2026-04-23 00:11 21.03610 -86.86671 47 ft 2 kts 246°
2026-04-23 00:11 21.03620 -86.86655 47 ft 2 kts 228°
2026-04-23 00:11 21.03631 -86.86644 47 ft 1 kts 213°
2026-04-23 00:12 21.03632 -86.86644 47 ft 0 kts 213°
2026-04-23 00:14 21.03602 -86.86664 47 ft 9 kts 212°
2026-04-23 00:14 21.03513 -86.86724 46 ft 15 kts 212°
2026-04-23 00:14 21.03394 -86.86802 42 ft 19 kts 211°
2026-04-23 00:15 21.03356 -86.86842 41 ft 8 kts 244°
2026-04-23 00:15 21.03377 -86.86935 39 ft 16 kts 297°
2026-04-23 00:15 21.03464 -86.87084 38 ft 24 kts 303°
2026-04-23 00:15 21.03589 -86.87283 35 ft 31 kts 304°
2026-04-23 00:16 21.03726 -86.87498 31 ft 33 kts 304°
2026-04-23 00:16 21.03873 -86.87737 31 ft 34 kts 303°
2026-04-23 00:16 21.04028 -86.87986 32 ft 35 kts 304°
2026-04-23 00:16 21.04189 -86.88242 36 ft 35 kts 303°
2026-04-23 00:17 21.04347 -86.88494 41 ft 34 kts 303°
2026-04-23 00:17 21.04500 -86.88738 42 ft 34 kts 306°
2026-04-23 00:17 21.04610 -86.88913 42 ft 18 kts 305°
2026-04-23 00:17 21.04622 -86.89017 43 ft 3 kts 219°
2026-04-23 00:18 21.04621 -86.89017 43 ft 0 kts 218°
2026-04-23 00:22 21.04620 -86.89018 43 ft 0 kts 218°
2026-04-23 00:22 21.04601 -86.89034 42 ft 5 kts 218°
2026-04-23 00:22 21.04546 -86.89068 41 ft 9 kts 197°
2026-04-23 00:22 21.04477 -86.89010 41 ft 2 kts 121°
2026-04-23 00:23 21.04476 -86.89007 40 ft 6 kts 121°
2026-04-23 00:23 21.04233 -86.88615 40 ft 110 kts 124°
2026-04-23 00:23 21.03533 -86.87499 51 ft 196 kts 122°
2026-04-23 00:24 21.02769 -86.86170 1007 ft 203 kts 125°
2026-04-23 00:24 21.01783 -86.85216 2120 ft 193 kts 147°
2026-04-23 00:24 21.00432 -86.84709 2790 ft 211 kts 169°
2026-04-23 00:24 20.98787 -86.84877 2983 ft 251 kts 197°
2026-04-23 00:25 20.97061 -86.86108 3467 ft 275 kts 217°
2026-04-23 00:25 20.95323 -86.87524 4668 ft 274 kts 218°
2026-04-23 00:25 20.94006 -86.89388 5585 ft 282 kts 247°
2026-04-23 00:25 20.93361 -86.91652 6699 ft 281 kts 258°
2026-04-23 00:26 20.92981 -86.93846 7605 ft 286 kts 261°
2026-04-23 00:26 20.92633 -86.96200 7983 ft 290 kts 262°
2026-04-23 00:26 20.92267 -86.98755 8230 ft 305 kts 262°
2026-04-23 00:26 20.91899 -87.01307 9549 ft 296 kts 262°
2026-04-23 00:27 20.91548 -87.03741 10587 ft 295 kts 262°
2026-04-23 00:27 20.91211 -87.06072 11471 ft 300 kts 262°
2026-04-23 00:27 20.90864 -87.08470 12396 ft 304 kts 261°
2026-04-23 00:27 20.90496 -87.11004 13238 ft 311 kts 261°
2026-04-23 00:28 20.90108 -87.13680 13797 ft 327 kts 262°
2026-04-23 00:28 20.89709 -87.16430 14454 ft 342 kts 262°
2026-04-23 00:28 20.89301 -87.19232 15334 ft 346 kts 262°
2026-04-23 00:28 20.88893 -87.22034 16249 ft 348 kts 262°
2026-04-23 00:29 20.88473 -87.24915 17168 ft 350 kts 262°
2026-04-23 00:29 20.88045 -87.27843 17952 ft 356 kts 262°
2026-04-23 00:29 20.87601 -87.30886 18496 ft 370 kts 262°
2026-04-23 00:29 20.87137 -87.34063 18930 ft 386 kts 262°
2026-04-23 00:30 20.86668 -87.37266 19320 ft 401 kts 262°
2026-04-23 00:30 20.86165 -87.40685 19998 ft 408 kts 262°
2026-04-23 00:30 20.85671 -87.44031 20998 ft 405 kts 262°
2026-04-23 00:30 20.85182 -87.47344 22191 ft 397 kts 263°
2026-04-23 00:31 20.84704 -87.50577 23357 ft 390 kts 263°
2026-04-23 00:31 20.84223 -87.53836 23568 ft 407 kts 262°
2026-04-23 00:31 20.83703 -87.57356 23713 ft 425 kts 262°
2026-04-23 00:31 20.83174 -87.60931 24549 ft 425 kts 262°
2026-04-23 00:32 20.82640 -87.64523 25188 ft 430 kts 262°
2026-04-23 00:32 20.82123 -87.68002 25784 ft 435 kts 262°
2026-04-23 00:32 20.81602 -87.71500 26492 ft 437 kts 262°
2026-04-23 00:32 20.81070 -87.75071 27229 ft 438 kts 261°
2026-04-23 00:33 20.80752 -87.78774 27787 ft 443 kts 269°
2026-04-23 00:33 20.80807 -87.82476 28405 ft 446 kts 271°
2026-04-23 00:33 20.80894 -87.86206 29027 ft 448 kts 271°
2026-04-23 00:33 20.80978 -87.89871 29539 ft 452 kts 270°
2026-04-23 00:34 20.81058 -87.93448 30062 ft 455 kts 270°
2026-04-23 00:34 20.81137 -87.97052 30786 ft 453 kts 270°
2026-04-23 00:34 20.81214 -88.00590 31684 ft 446 kts 270°
2026-04-23 00:34 20.81290 -88.04103 32571 ft 439 kts 270°
2026-04-23 00:35 20.81361 -88.07513 33354 ft 435 kts 270°
2026-04-23 00:35 20.81429 -88.10776 34059 ft 432 kts 270°
2026-04-23 00:35 20.81496 -88.14048 34793 ft 429 kts 270°
2026-04-23 00:35 20.81562 -88.17264 35536 ft 425 kts 270°
2026-04-23 00:36 20.81625 -88.20394 36176 ft 423 kts 270°
2026-04-23 00:36 20.81688 -88.23589 36731 ft 421 kts 270°
2026-04-23 00:36 20.81750 -88.26685 37181 ft 420 kts 270°
2026-04-23 00:36 20.81810 -88.29790 37487 ft 421 kts 270°
2026-04-23 00:37 20.81871 -88.32930 37838 ft 421 kts 270°
2026-04-23 00:37 20.81930 -88.36041 38264 ft 419 kts 270°
2026-04-23 00:37 20.81989 -88.39143 38742 ft 416 kts 270°
2026-04-23 00:37 20.82046 -88.42190 39164 ft 413 kts 271°
2026-04-23 00:38 20.82103 -88.45255 39392 ft 414 kts 270°
2026-04-23 00:38 20.82160 -88.48338 39546 ft 416 kts 271°
2026-04-23 00:38 20.82217 -88.51422 39717 ft 417 kts 270°
2026-04-23 00:38 20.82272 -88.54497 39923 ft 417 kts 270°
2026-04-23 00:39 20.82327 -88.57598 39936 ft 418 kts 271°
2026-04-23 00:39 20.82437 -88.63786 39940 ft 416 kts 271°
2026-04-23 00:40 20.82544 -88.69978 39950 ft 416 kts 270°
2026-04-23 00:40 20.82648 -88.76166 39948 ft 419 kts 270°
2026-04-23 00:41 20.82750 -88.82362 39947 ft 418 kts 270°
2026-04-23 00:41 20.82851 -88.88545 39949 ft 417 kts 270°
2026-04-23 00:42 20.82948 -88.94730 39952 ft 417 kts 270°
2026-04-23 00:42 20.83044 -89.00899 39944 ft 417 kts 270°
2026-04-23 00:43 20.83138 -89.07083 39946 ft 417 kts 270°
2026-04-23 00:43 20.83228 -89.13221 39948 ft 415 kts 270°
2026-04-23 00:44 20.83317 -89.19379 39946 ft 413 kts 270°
2026-04-23 00:44 20.83369 -89.25517 39945 ft 415 kts 270°
2026-04-23 00:45 20.83337 -89.31645 39950 ft 415 kts 269°
2026-04-23 00:45 20.83306 -89.37807 39949 ft 415 kts 270°
2026-04-23 00:46 20.83277 -89.43951 39954 ft 413 kts 270°
2026-04-23 00:46 20.83246 -89.50070 39946 ft 412 kts 269°
2026-04-23 00:47 20.83214 -89.56186 39950 ft 415 kts 270°
2026-04-23 00:47 20.83180 -89.62348 39937 ft 414 kts 270°
2026-04-23 00:48 20.83144 -89.68502 39954 ft 415 kts 269°
2026-04-23 00:48 20.83106 -89.74651 39954 ft 415 kts 269°
2026-04-23 00:49 20.83067 -89.80803 39959 ft 414 kts 269°
2026-04-23 00:49 20.83025 -89.86948 39932 ft 413 kts 269°
2026-04-23 00:50 20.82981 -89.93089 39969 ft 417 kts 269°
2026-04-23 00:50 20.82935 -89.99225 39959 ft 413 kts 269°
2026-04-23 00:51 20.82887 -90.05343 39968 ft 414 kts 269°
2026-04-23 00:51 20.82822 -90.11500 39934 ft 414 kts 269°
2026-04-23 00:52 20.82718 -90.17619 39961 ft 414 kts 269°
2026-04-23 00:52 20.82612 -90.23763 39954 ft 414 kts 269°
2026-04-23 00:53 20.82506 -90.29909 39951 ft 414 kts 269°
2026-04-23 00:53 20.82399 -90.36025 39961 ft 414 kts 269°
2026-04-23 00:54 20.82288 -90.42194 39936 ft 414 kts 269°
2026-04-23 00:54 20.82176 -90.48347 39945 ft 417 kts 269°
2026-04-23 00:55 20.82062 -90.54507 39947 ft 415 kts 269°
2026-04-23 00:55 20.81946 -90.60663 39940 ft 414 kts 269°
2026-04-23 00:56 20.81827 -90.66826 39953 ft 415 kts 269°
2026-04-23 00:56 20.81707 -90.72962 39955 ft 415 kts 269°
2026-04-23 00:57 20.81584 -90.79115 39947 ft 413 kts 269°
2026-04-23 00:57 20.81459 -90.85259 39940 ft 414 kts 269°
2026-04-23 00:58 20.81332 -90.91401 39948 ft 415 kts 269°
2026-04-23 00:58 20.81203 -90.97528 39943 ft 413 kts 269°
2026-04-23 00:59 20.81071 -91.03698 39938 ft 414 kts 269°
2026-04-23 00:59 20.80937 -91.09853 39940 ft 415 kts 269°
2026-04-23 01:00 20.80801 -91.16009 39945 ft 415 kts 269°
2026-04-23 01:00 20.80663 -91.22128 39926 ft 416 kts 269°
2026-04-23 01:01 20.80522 -91.28326 39938 ft 417 kts 269°
2026-04-23 01:01 20.80379 -91.34445 39935 ft 414 kts 269°
2026-04-23 01:02 20.80233 -91.40633 39938 ft 417 kts 269°
2026-04-23 01:02 20.80085 -91.46773 39931 ft 414 kts 269°
2026-04-23 01:03 20.79935 -91.52919 39937 ft 417 kts 269°
2026-04-23 01:03 20.79783 -91.59062 39928 ft 415 kts 269°
2026-04-23 01:04 20.79629 -91.65229 39935 ft 415 kts 269°
2026-04-23 01:04 20.79392 -91.74469 39952 ft 414 kts 269°
2026-04-23 01:05 20.79233 -91.80605 39942 ft 416 kts 269°
2026-04-23 01:05 20.79071 -91.86735 39954 ft 413 kts 269°
2026-04-23 01:06 20.78908 -91.92851 39946 ft 415 kts 269°
2026-04-23 01:06 20.78742 -91.98985 39932 ft 414 kts 269°
2026-04-23 01:07 20.78574 -92.05124 39939 ft 415 kts 269°
2026-04-23 01:07 20.78403 -92.11274 39938 ft 414 kts 269°
2026-04-23 01:08 20.78231 -92.17393 39939 ft 415 kts 269°
2026-04-23 01:08 20.78056 -92.23545 39936 ft 415 kts 269°
2026-04-23 01:09 20.77879 -92.29678 39935 ft 416 kts 269°
2026-04-23 01:09 20.77699 -92.35858 39922 ft 416 kts 269°
2026-04-23 01:10 20.77517 -92.42020 39935 ft 416 kts 269°
2026-04-23 01:10 20.77334 -92.48133 39930 ft 413 kts 269°
2026-04-23 01:11 20.77148 -92.54292 39930 ft 414 kts 269°
2026-04-23 01:11 20.76960 -92.60409 39923 ft 412 kts 269°
2026-04-23 01:12 20.76771 -92.66537 39952 ft 414 kts 269°
2026-04-23 01:12 20.76579 -92.72662 39944 ft 412 kts 269°
2026-04-23 01:13 20.76385 -92.78770 39949 ft 413 kts 269°
2026-04-23 01:13 20.76190 -92.84859 39943 ft 413 kts 269°
2026-04-23 01:14 20.75991 -92.91009 39941 ft 415 kts 269°
2026-04-23 01:14 20.75790 -92.97134 39939 ft 413 kts 269°
2026-04-23 01:15 20.75588 -93.03266 39942 ft 414 kts 269°
2026-04-23 01:15 20.75384 -93.09367 39935 ft 413 kts 269°
2026-04-23 01:16 20.75177 -93.15493 39933 ft 414 kts 269°
2026-04-23 01:16 20.74967 -93.21614 39936 ft 414 kts 269°
2026-04-23 01:17 20.74756 -93.27736 39928 ft 414 kts 269°
2026-04-23 01:17 20.74541 -93.33907 39926 ft 414 kts 269°
2026-04-23 01:18 20.74326 -93.40004 39916 ft 414 kts 269°
2026-04-23 01:18 20.74293 -93.46111 39919 ft 413 kts 271°
2026-04-23 01:19 20.74348 -93.52252 39918 ft 412 kts 271°
2026-04-23 01:19 20.74389 -93.58382 39919 ft 416 kts 271°
2026-04-23 01:20 20.74423 -93.64526 39923 ft 413 kts 271°
2026-04-23 01:20 20.74451 -93.70638 39935 ft 415 kts 270°
2026-04-23 01:21 20.74477 -93.76818 39935 ft 412 kts 271°
2026-04-23 01:21 20.74499 -93.82935 39928 ft 414 kts 271°
2026-04-23 01:22 20.74519 -93.89057 39928 ft 413 kts 270°
2026-04-23 01:22 20.74536 -93.95171 39930 ft 411 kts 270°
2026-04-23 01:23 20.74552 -94.01308 39922 ft 413 kts 270°
2026-04-23 01:23 20.74565 -94.07482 39924 ft 411 kts 270°
2026-04-23 01:24 20.74576 -94.13680 39921 ft 414 kts 271°
2026-04-23 01:24 20.74585 -94.19862 39922 ft 411 kts 270°
2026-04-23 01:25 20.74592 -94.26081 39922 ft 414 kts 270°
2026-04-23 01:25 20.74596 -94.32239 39922 ft 413 kts 271°
2026-04-23 01:26 20.74598 -94.38337 39911 ft 412 kts 270°
2026-04-23 01:26 20.74598 -94.44477 39909 ft 413 kts 270°
2026-04-23 01:27 20.74596 -94.50633 39921 ft 413 kts 270°
2026-04-23 01:27 20.74591 -94.56803 39916 ft 414 kts 271°
2026-04-23 01:28 20.74585 -94.62932 39913 ft 413 kts 271°
2026-04-23 01:28 20.74576 -94.69236 39933 ft 416 kts 270°
2026-04-23 01:29 20.74565 -94.75552 39940 ft 414 kts 270°
2026-04-23 01:29 20.74551 -94.81956 39923 ft 412 kts 270°
2026-04-23 01:30 20.74535 -94.88143 39930 ft 415 kts 270°
2026-04-23 01:30 20.74517 -94.94280 39933 ft 413 kts 270°
2026-04-23 01:31 20.74497 -95.00415 39927 ft 414 kts 270°
2026-04-23 01:31 20.74212 -95.06506 39916 ft 414 kts 267°
2026-04-23 01:32 20.73872 -95.12678 39923 ft 417 kts 268°
2026-04-23 01:32 20.73545 -95.18797 39913 ft 413 kts 268°
2026-04-23 01:33 20.73214 -95.24937 39916 ft 414 kts 268°
2026-04-23 01:33 20.72886 -95.31039 39916 ft 416 kts 267°
2026-04-23 01:34 20.72551 -95.37250 39919 ft 417 kts 267°
2026-04-23 01:34 20.72220 -95.43348 39922 ft 415 kts 268°
2026-04-23 01:35 20.71882 -95.49541 39924 ft 418 kts 268°
2026-04-23 01:35 20.71544 -95.55707 39918 ft 417 kts 268°
2026-04-23 01:36 20.71203 -95.61878 39918 ft 415 kts 268°
2026-04-23 01:36 20.70861 -95.68046 39932 ft 420 kts 267°
2026-04-23 01:37 20.70516 -95.74216 39920 ft 418 kts 268°
2026-04-23 01:37 20.70166 -95.80429 39920 ft 419 kts 268°
2026-04-23 01:38 20.69816 -95.86623 39916 ft 418 kts 267°
2026-04-23 01:38 20.69464 -95.92807 39906 ft 419 kts 267°
2026-04-23 01:39 20.69108 -95.99011 39906 ft 421 kts 268°
2026-04-23 01:39 20.68749 -96.05232 39904 ft 420 kts 268°
2026-04-23 01:40 20.68392 -96.11383 39911 ft 417 kts 267°
2026-04-23 01:40 20.68029 -96.17600 39910 ft 422 kts 268°
2026-04-23 01:41 20.67663 -96.23813 39912 ft 421 kts 268°
2026-04-23 01:41 20.67294 -96.30051 39911 ft 421 kts 268°
2026-04-23 01:42 20.66923 -96.36295 39917 ft 421 kts 268°
2026-04-23 01:42 20.66550 -96.42527 39916 ft 424 kts 267°
2026-04-23 01:43 20.66174 -96.48772 39915 ft 419 kts 267°
2026-04-23 01:43 20.65797 -96.54985 39914 ft 422 kts 268°
2026-04-23 01:44 20.65417 -96.61223 39916 ft 421 kts 267°
2026-04-23 01:44 20.65036 -96.67441 39931 ft 421 kts 267°
2026-04-23 01:45 20.64630 -96.74020 39929 ft 422 kts 267°
2026-04-23 01:45 20.64006 -96.80477 39927 ft 425 kts 259°
2026-04-23 01:46 20.62194 -96.86543 39927 ft 426 kts 252°
2026-04-23 01:46 20.60165 -96.92538 39927 ft 428 kts 252°
2026-04-23 01:47 20.58156 -96.98453 39818 ft 422 kts 253°
2026-04-23 01:47 20.57157 -97.01390 39393 ft 424 kts 252°
2026-04-23 01:47 20.56149 -97.04352 38865 ft 428 kts 252°
2026-04-23 01:48 20.55139 -97.07316 38429 ft 430 kts 252°
2026-04-23 01:48 20.54117 -97.10316 38088 ft 431 kts 252°
2026-04-23 01:48 20.53087 -97.13333 37783 ft 432 kts 252°
2026-04-23 01:48 20.52067 -97.16321 37438 ft 434 kts 252°
2026-04-23 01:49 20.51027 -97.19364 36991 ft 437 kts 253°
2026-04-23 01:49 20.49979 -97.22430 36630 ft 439 kts 252°
2026-04-23 01:49 20.48939 -97.25468 36408 ft 439 kts 252°
2026-04-23 01:49 20.47885 -97.28542 36125 ft 435 kts 253°
2026-04-23 01:50 20.46858 -97.31541 35264 ft 435 kts 252°
2026-04-23 01:50 20.45828 -97.34545 34320 ft 436 kts 253°
2026-04-23 01:50 20.44783 -97.37589 33436 ft 436 kts 252°
2026-04-23 01:50 20.43728 -97.40668 32639 ft 453 kts 253°
2026-04-23 01:51 20.42635 -97.43855 31765 ft 467 kts 253°
2026-04-23 01:51 20.41522 -97.47091 30833 ft 468 kts 253°
2026-04-23 01:51 20.40407 -97.50329 30223 ft 461 kts 253°
2026-04-23 01:51 20.39324 -97.53471 29795 ft 456 kts 253°
2026-04-23 01:52 20.38227 -97.56654 29241 ft 459 kts 253°
2026-04-23 01:52 20.37007 -97.60191 28606 ft 456 kts 253°
2026-04-23 01:52 20.35744 -97.63854 27948 ft 452 kts 253°
2026-04-23 01:52 20.34520 -97.67396 27335 ft 446 kts 253°
2026-04-23 01:53 20.33325 -97.70855 26761 ft 443 kts 252°
2026-04-23 01:53 20.32093 -97.74420 26122 ft 443 kts 253°
2026-04-23 01:53 20.30923 -97.77802 25454 ft 439 kts 253°
2026-04-23 01:53 20.29737 -97.81226 24827 ft 433 kts 253°
2026-04-23 01:54 20.28529 -97.84710 24183 ft 426 kts 252°
2026-04-23 01:54 20.27346 -97.88120 23554 ft 420 kts 253°
2026-04-23 01:54 20.26188 -97.91459 22882 ft 415 kts 252°
2026-04-23 01:54 20.25085 -97.94638 22292 ft 409 kts 252°
2026-04-23 01:55 20.24009 -97.97732 21748 ft 403 kts 252°
2026-04-23 01:55 20.22896 -98.00937 21128 ft 399 kts 252°
2026-04-23 01:55 20.21813 -98.04048 20497 ft 396 kts 252°
2026-04-23 01:55 20.20751 -98.07100 19855 ft 394 kts 252°
2026-04-23 01:56 20.19690 -98.10149 19237 ft 391 kts 252°
2026-04-23 01:56 20.18633 -98.13182 18597 ft 400 kts 252°
2026-04-23 01:56 20.17587 -98.16185 18109 ft 397 kts 252°
2026-04-23 01:56 20.16542 -98.19173 18016 ft 379 kts 252°
2026-04-23 01:57 20.15544 -98.22027 17908 ft 363 kts 252°
2026-04-23 01:57 20.14581 -98.24779 17755 ft 350 kts 252°
2026-04-23 01:57 20.13658 -98.27424 17464 ft 343 kts 252°
2026-04-23 01:57 20.12788 -98.29914 17173 ft 336 kts 253°
2026-04-23 01:58 20.12011 -98.32333 17005 ft 326 kts 256°
2026-04-23 01:58 20.11336 -98.34689 16873 ft 321 kts 256°
2026-04-23 01:58 20.10628 -98.37138 16740 ft 321 kts 256°
2026-04-23 01:58 20.09926 -98.39525 16617 ft 319 kts 256°
2026-04-23 01:59 20.09243 -98.41830 16501 ft 318 kts 256°
2026-04-23 01:59 20.08542 -98.44192 16376 ft 317 kts 256°
2026-04-23 01:59 20.07829 -98.46588 16259 ft 317 kts 256°
2026-04-23 01:59 20.07071 -98.49139 16144 ft 318 kts 256°
2026-04-23 02:00 20.06313 -98.51681 16012 ft 317 kts 256°
2026-04-23 02:00 20.05551 -98.54240 15876 ft 315 kts 256°
2026-04-23 02:00 20.04843 -98.56617 15754 ft 316 kts 256°
2026-04-23 02:00 20.04097 -98.59116 15611 ft 316 kts 256°
2026-04-23 02:01 20.03367 -98.61562 15480 ft 314 kts 256°
2026-04-23 02:01 20.02623 -98.64054 15358 ft 313 kts 256°
2026-04-23 02:01 20.01887 -98.66519 15234 ft 313 kts 255°
2026-04-23 02:01 20.01165 -98.68933 15096 ft 311 kts 256°
2026-04-23 02:02 20.00488 -98.71198 14973 ft 311 kts 256°
2026-04-23 02:02 19.99792 -98.73521 14826 ft 305 kts 255°
2026-04-23 02:02 19.99101 -98.75826 14703 ft 294 kts 256°
2026-04-23 02:02 19.98438 -98.78037 14624 ft 284 kts 256°
2026-04-23 02:03 19.97828 -98.80071 14515 ft 274 kts 256°
2026-04-23 02:03 19.97134 -98.81959 14424 ft 268 kts 248°
2026-04-23 02:03 19.96271 -98.83695 14313 ft 262 kts 246°
2026-04-23 02:03 19.95387 -98.85410 14186 ft 258 kts 246°
2026-04-23 02:04 19.94514 -98.87112 14117 ft 259 kts 246°
2026-04-23 02:04 19.93618 -98.88865 13985 ft 261 kts 246°
2026-04-23 02:04 19.92734 -98.90594 13846 ft 259 kts 246°
2026-04-23 02:04 19.91854 -98.92316 13719 ft 259 kts 246°
2026-04-23 02:05 19.90927 -98.94129 13628 ft 260 kts 245°
2026-04-23 02:05 19.90115 -98.95869 13516 ft 257 kts 252°
2026-04-23 02:05 19.89465 -98.97621 13394 ft 255 kts 253°
2026-04-23 02:05 19.88818 -98.99412 13335 ft 255 kts 253°
2026-04-23 02:06 19.88176 -99.01186 13297 ft 255 kts 253°
2026-04-23 02:06 19.87514 -99.03001 13168 ft 254 kts 253°
2026-04-23 02:06 19.86852 -99.04820 13028 ft 253 kts 253°
2026-04-23 02:06 19.86210 -99.06583 12853 ft 260 kts 252°
2026-04-23 02:07 19.85529 -99.08451 12246 ft 269 kts 252°
2026-04-23 02:07 19.84847 -99.10317 11745 ft 273 kts 252°
2026-04-23 02:07 19.84201 -99.12225 11449 ft 269 kts 256°
2026-04-23 02:07 19.83636 -99.14094 11421 ft 258 kts 257°
2026-04-23 02:08 19.83076 -99.15931 11426 ft 254 kts 257°
2026-04-23 02:08 19.82528 -99.17709 11411 ft 254 kts 256°
2026-04-23 02:08 19.81918 -99.19492 11292 ft 259 kts 245°
2026-04-23 02:08 19.80730 -99.20918 11043 ft 263 kts 215°
2026-04-23 02:09 19.78995 -99.21558 10805 ft 263 kts 183°
2026-04-23 02:09 19.77147 -99.21446 10714 ft 268 kts 173°
2026-04-23 02:09 19.75306 -99.21216 10619 ft 267 kts 173°
2026-04-23 02:09 19.73319 -99.20985 10446 ft 265 kts 173°
2026-04-23 02:10 19.71410 -99.20776 10271 ft 261 kts 173°
2026-04-23 02:10 19.69605 -99.20582 10120 ft 255 kts 173°
2026-04-23 02:10 19.67893 -99.20210 9969 ft 242 kts 152°
2026-04-23 02:10 19.66611 -99.19168 9871 ft 228 kts 127°
2026-04-23 02:11 19.65788 -99.17750 9730 ft 222 kts 111°
2026-04-23 02:11 19.65211 -99.16235 9561 ft 222 kts 106°
2026-04-23 02:11 19.64965 -99.14661 9335 ft 212 kts 82°
2026-04-23 02:11 19.65170 -99.13168 9151 ft 195 kts 75°
2026-04-23 02:12 19.65412 -99.11822 9008 ft 178 kts 74°
2026-04-23 02:12 19.65866 -99.10710 8878 ft 155 kts 46°
2026-04-23 02:12 19.66585 -99.09891 8777 ft 149 kts 43°
2026-04-23 02:12 19.67267 -99.09076 8671 ft 146 kts 45°
2026-04-23 02:13 19.67935 -99.08261 8558 ft 146 kts 45°
2026-04-23 02:13 19.68619 -99.07450 8452 ft 143 kts 45°
2026-04-23 02:13 19.69272 -99.06656 8416 ft 144 kts 46°
2026-04-23 02:13 19.69930 -99.05830 8345 ft 146 kts 46°
2026-04-23 02:14 19.70592 -99.05019 8143 ft 147 kts 44°
2026-04-23 02:14 19.71282 -99.04222 7892 ft 138 kts 42°
2026-04-23 02:14 19.71916 -99.03464 7680 ft 137 kts 46°
2026-04-23 02:14 19.72538 -99.02679 7507 ft 140 kts 45°
2026-04-23 02:15 19.73719 -99.01263 7381 ft 89 kts 50°
2026-04-23 02:15 19.74027 -99.00877 7383 ft 42 kts 49°
2026-04-23 02:15 19.74214 -99.00687 7382 ft 26 kts 32°
2026-04-23 02:16 19.74368 -99.00642 7380 ft 12 kts 330°
2026-04-23 02:16 19.74360 -99.00721 7380 ft 12 kts 231°
2026-04-23 02:16 19.74303 -99.00790 7383 ft 12 kts 229°
2026-04-23 02:16 19.74245 -99.00861 7383 ft 13 kts 229°
2026-04-23 02:17 19.74168 -99.00956 7383 ft 19 kts 229°
2026-04-23 02:17 19.74068 -99.01077 7382 ft 22 kts 228°
2026-04-23 02:17 19.73959 -99.01211 7382 ft 23 kts 229°
2026-04-23 02:17 19.73841 -99.01352 7380 ft 24 kts 228°
2026-04-23 02:18 19.73727 -99.01491 7380 ft 25 kts 230°
2026-04-23 02:18 19.73612 -99.01636 7380 ft 25 kts 227°
2026-04-23 02:18 19.73499 -99.01773 7380 ft 18 kts 240°
2026-04-23 02:18 19.73559 -99.01881 7380 ft 11 kts 325°
2026-04-23 02:19 19.73625 -99.01920 7380 ft 0 kts 316°
2026-04-23 02:19 19.73629 -99.01924 7380 ft 1 kts 316°
2026-04-23 02:19 19.73645 -99.01939 7380 ft 3 kts 319°
2026-04-23 02:19 19.73652 -99.01946 7380 ft 0 kts 319°